Quantico, VA

7:05 PM EST on December 15, 2019 (GMT -0500)
Quantico Marine Corps Air Facility

Weather History for KNYG - October, 2019

Change the Weather History Date:

Thursday, October 3, 2019

  Actual Average Record
Temperature  
Mean Temperature 78 °F -  
Max Temperature 84 °F 69 °F 88 °F (2018)
Min Temperature 73 °F 51 °F 36 °F (2003)
Cooling Degree Days 14    
Growing Degree Days 28 (Base 50)    
Moisture  
Dew Point 70 °F    
Average Humidity 75    
Maximum Humidity 91    
Minimum Humidity 61    
Precipitation  
Precipitation 0.00 in - - ()
Sea Level Pressure  
Sea Level Pressure 29.96 in    
Wind  
Wind Speed 6 mph (East)    
Max Wind Speed 10 mph    
Max Gust Speed -    
Visibility 10 miles    
Events      
Averages and records for this station are not official NWS values.
T = Trace of Precipitation, MM = Missing Value Source: NWS Daily Summary

Daily Weather History Graph

Daily Weather History Graph

Search for Another Location

Airport or City:

Astronomy

Oct. 03, 2019 Rise Set
Actual Time 7:06 AM EDT 6:49 PM EDT
Civil Twilight 6:40 AM EDT 7:15 PM EDT
Nautical Twilight 6:09 AM EDT 7:46 PM EDT
Astronomical Twilight 5:38 AM EDT 8:17 PM EDT
Moon 12:32 PM EDT (10/3) 10:30 PM EDT (10/3)
Length of Visible Light 12h 35m
Length of Day
11h 42m
Waxing Crescent, 29% of the Moon is Illuminated
Oct 3
Waxing Crescent
Oct 5
First Quarter
Oct 13
Full
Oct 21
Last Quarter
Oct 27
New

Hourly Weather History & Observations

Time (EDT) Temp. Heat Index Dew Point Humidity Pressure Visibility Wind Dir Wind Speed Gust Speed Precip Events Conditions
12:56 AM 73.9 °F - 70.0 °F 87% 29.89 in 10.0 mi WNW 4.6 mph - N/A   Mostly Cloudy
1:56 AM 73.9 °F - 70.0 °F 87% 29.90 in 10.0 mi Calm Calm - N/A   Clear
2:56 AM 75.0 °F - 70.0 °F 84% 29.89 in 10.0 mi Calm Calm - N/A   Clear
3:56 AM 75.9 °F - 73.0 °F 91% 29.91 in 10.0 mi NE 10.4 mph - N/A   Partly Cloudy
4:56 AM 80.1 °F 82.9 °F 69.1 °F 69% 29.93 in 10.0 mi ENE 6.9 mph - N/A   Clear
5:56 AM 79.0 °F - 68.0 °F 69% 29.95 in 10.0 mi ENE 5.8 mph - N/A   Overcast
6:56 AM 78.1 °F - 68.0 °F 71% 29.97 in 10.0 mi ENE 6.9 mph - N/A   Partly Cloudy
7:56 AM 78.1 °F - 69.1 °F 74% 30.00 in 10.0 mi East 8.1 mph - N/A   Scattered Clouds
8:56 AM 78.1 °F - 69.1 °F 74% 30.01 in 10.0 mi East 6.9 mph - N/A   Scattered Clouds
9:24 AM 78.1 °F - 70.0 °F 76% 30.00 in 10.0 mi East 6.9 mph - N/A   Mostly Cloudy
9:56 AM 73.9 °F - 70.0 °F 87% 30.02 in 10.0 mi East 6.9 mph - N/A   Mostly Cloudy
10:56 AM 79.0 °F - 70.0 °F 74% 30.02 in 10.0 mi ENE 9.2 mph - N/A   Overcast
11:56 AM 81.0 °F 84.4 °F 70.0 °F 69% 30.01 in 10.0 mi NE 9.2 mph - N/A   Mostly Cloudy
12:56 PM 82.9 °F 86.5 °F 69.1 °F 63% 29.99 in 10.0 mi NE 9.2 mph - N/A   Mostly Cloudy
1:56 PM 82.9 °F 86.5 °F 69.1 °F 63% 29.97 in 10.0 mi NE 10.4 mph - N/A   Scattered Clouds
2:56 PM 84.0 °F 87.8 °F 69.1 °F 61% 29.97 in 10.0 mi NE 10.4 mph - N/A   Partly Cloudy
3:56 PM 84.0 °F 87.8 °F 69.1 °F 61% 29.96 in 10.0 mi ENE 10.4 mph - N/A   Partly Cloudy
4:56 PM 84.9 °F 90.1 °F 71.1 °F 63% 29.94 in 10.0 mi ESE 9.2 mph - N/A   Clear
5:56 PM 82.0 °F 86.3 °F 71.1 °F 69% 29.94 in 10.0 mi SE 9.2 mph - N/A   Clear
6:56 PM 80.1 °F 83.6 °F 71.1 °F 74% 29.94 in 10.0 mi ESE 9.2 mph - N/A   Clear
7:39 PM 78.1 °F - 70.0 °F 76% 29.94 in 10.0 mi East 10.4 mph - N/A   Mostly Cloudy
7:56 PM 78.1 °F - 70.0 °F 76% 29.95 in 10.0 mi ESE 9.2 mph - N/A   Overcast
8:56 PM 77.0 °F - 70.0 °F 79% 29.97 in 10.0 mi East 8.1 mph - N/A   Overcast
9:56 PM 75.9 °F - 70.0 °F 82% 29.98 in 10.0 mi East 6.9 mph - N/A   Overcast
10:56 PM 73.0 °F - 70.0 °F 90% 29.97 in 10.0 mi South 3.5 mph - N/A   Overcast
11:56 PM 73.9 °F - 71.1 °F 91% 29.95 in 10.0 mi South 4.6 mph - N/A   Overcast